Regional Weather Roundup
Issued by NWS

Home | Current Version | Previous Version | Text Only | Print | Product List | Glossary On
Versions: 1 2 3 4 5 6 7 8 9 10 11 12 13 14 15 16 17 18 19 20 21 22 23 24 25 26 27 28 29 30 31 32 33 34 35 36 37 38 39 40 41 42 43 44 45 46 47 48 49 50
000
ASUS46 KLOX 020213
RWRCA

SOUTHERN CALIFORNIA WEATHER ROUNDUP
NATIONAL WEATHER SERVICE OXNARD CALIFORNIA
700 PM PDT SUN MAY 01 2016

NOTE: "FAIR" INDICATES FEW OR NO CLOUDS BELOW 12,000 FEET WITH NO
SIGNIFICANT WEATHER AND/OR OBSTRUCTIONS TO VISIBILITY.

  -  STATIONS PRECEEDED BY AN ASTERISK (*) ARE NOT NWS OR FAA
     STATIONS AND ARE NOT SUBJECT TO NWS AND FAA QUALITY CONTROL.

CAZ041-042-087-020300-
LA AND ORANGE COUNTY COASTAL AREAS


CITY           SKY/WX    TMP DP  RH WIND       PRES   REMARKS
L.A. DOWNTOWN  CLEAR     63  53  70 VRB3      29.92S
L.A. AIRPORT   PTCLDY    60  52  74 W10       29.93S
LONG BEACH     CLEAR     64  52  64 S6        29.92S

CITY           SKY/WX    TMP DP  RH WIND       PRES   REMARKS
AVALON           N/A     61 N/A N/A E8          N/A
FULLERTON      CLEAR     65  52  62 SW6       29.92R
*GETTY CENTER    N/A     55  52  88 SW8         N/A
HAWTHORNE      CLEAR     62  52  69 W9        29.93S
*LEO CARRILLO    N/A     59  53  81 S2          N/A
*LOS ALAMITOS  FAIR      63  54  73 S7        29.93R
*REDONDO BEACH   N/A     61  52  74 W3        29.93S
SANTA ANA      PTCLDY    61  52  72 SW7       29.93S
STA MONICA APT MOCLDY    60  53  77 SW8       29.93S
*STA MON PIER    N/A     58  55  87 W9        29.87R
TORRANCE       PTCLDY    63  55  77 W9        29.94R

$$

CAZ547-548-048-020300-
LA COUNTY VALLEYS AND INLAND EMPIRE


CITY           SKY/WX    TMP DP  RH WIND       PRES   REMARKS
BURBANK        CLEAR     64  51  62 S9        29.90S
VAN NUYS       PTCLDY    66  50  56 S8        29.90R

CITY           SKY/WX    TMP DP  RH WIND       PRES   REMARKS
CORONA AIRPORT CLEAR     66  52  60 W13G21    29.90R
*CHATSWORTH      N/A     69  51  51 E5        29.91R
CHINO          PTCLDY    66  51  58 W15       29.92R
*CLAREMONT       N/A     66  50  57 SW7         N/A
MARCH AFB      CLEAR     68  51  54 NW12      29.90R
*NORTHRIDGE      N/A     68  46  45 SE3         N/A
ONTARIO        PTCLDY    66  50  56 SW14      29.91R
*PASADENA        N/A     66  55  68 E1          N/A
POMONA         CLEAR     66  50  55 SW10G17   29.94R
RIVERSIDE      PTCLDY    68  51  54 W13G23    29.90R
SAN BERNARDINO PTCLDY    73  48  40 SW14      29.89R
*SAN GABRIEL     N/A     65  54  68 S8        29.98S
*SAN RAFAEL HI   N/A     63  47  55 E9          N/A
*SAUGUS          N/A     73  50  43 SE13G24     N/A
*WHITEMAN AP   CLEAR     66  50  55 SE8       29.94R
*WHITTIER HILL   N/A     63  52  68 S8          N/A
*WOODLAND HILL   N/A     68  50  52 S6          N/A

$$

CAZ054-055-020300-
LA AND SAN BERNARDINO COUNTY MOUNTAINS


CITY           SKY/WX    TMP DP  RH WIND       PRES   REMARKS
*ACTON           N/A     68  45  42 W7          N/A
*BIG BEAR AIRP PTCLDY    46  34  61 CALM      30.08R
*BIG PINES       N/A     50  31  47 CALM        N/A
*CHILAO          N/A     55  42  62 SW5         N/A
SANDBERG       CLOUDY    59  41  51 W6        30.00F
*WARM SPRINGS    N/A     58  42  56 SW6         N/A

$$

CAZ028-029-059-060-099-020300-
ANTELOPE VALLEY AND SURROUNDING AREAS


CITY           SKY/WX    TMP DP  RH WIND       PRES   REMARKS
LANCASTER      PTCLDY    69  48  47 SW16      29.91R
PALMDALE       PTCLDY    69  46  43 SW15      29.91R
*POPPY PARK      N/A     65  45  49 SW14G28     N/A

CITY           SKY/WX    TMP DP  RH WIND       PRES   REMARKS
29 PALMS       PTCLDY    74  33  22 SE6       29.94S
BARSTOW/DAGGET PTCLDY    77  30  17 NE5       29.87S
BISHOP         CLOUDY    60  36  40 S8        30.01R
CHINA LAKE     MOCLDY    75  31  19 NE6       29.90S
EDWARDS AFB    MOCLDY    74  30  19 NE13      29.88R
MOJAVE         PTCLDY    73  30  20 CALM      29.92R
NEEDLES        CLEAR     81  39  22 E3        29.85R
VICTORVILLE    PTCLDY    68  43  40 S16       29.92R

$$

CAZ039-040-020300-
VENTURA AND SANTA BARBARA COUNTY COAST


CITY           SKY/WX    TMP DP  RH WIND       PRES   REMARKS
CAMARILLO      PTCLDY    60  52  74 SW7       29.92S
NWS OXNARD       N/A     60  52  73 SW3       29.91F
OXNARD AIRPORT MOCLDY    61  53  75 SW8       29.92S
*POINT MUGU    PTCLDY    60  52  74 SW7       29.94R
SBA APT/GOLETA CLEAR     60  53  77 S5        29.92R
*SANTA BARBARA   N/A     65  51  60 CALM      30.00R
*VENTURA         N/A     60  53  77 SW3       29.92R

$$

CAZ044-045-020300-
VENTURA COUNTY VALLEYS


CITY           SKY/WX    TMP DP  RH WIND       PRES   REMARKS
*SIMI VALLEY     N/A     64  54  69 CALM      29.88R
*WESTLAKE VILL   N/A     62  52  71 CALM      29.90R
*OJAI            N/A     65  53  65 W1        29.86S
*FILLMORE        N/A     65  54  67 CALM      29.82S

$$

CAZ053-020300-
VENTURA COUNTY MOUNTAINS


CITY           SKY/WX    TMP DP  RH WIND       PRES   REMARKS
*LOCKWOOD VLY    N/A     50  39  66 MISG        N/A
*ROSE VALLEY     N/A     63  50  63 MISG        N/A

$$

CAZ034-035-036-020300-
CENTRAL COAST AND SANTA YNEZ VALLEY


CITY           SKY/WX    TMP DP  RH WIND       PRES   REMARKS
SAN LUIS OBISP CLEAR     64  53  67 S6        29.92S
SANTA MARIA    PTCLDY    61  53  75 N9        29.93R

CITY           SKY/WX    TMP DP  RH WIND       PRES   REMARKS
*CAL POLY SLO    N/A     64  55  72 S3G12       N/A
*LOMPOC        CLEAR     61  52  72 NW7       29.92R
*PISMO BEACH     N/A     58  54  85 SW3       29.93S
*SANTA YNEZ    FAIR      66  50  55 W8        29.91R

$$

CAZ037-038-051-020300-
SAN LUIS OBISPO COUNTY INTERIOR AND CUYAMA VALLEY


CITY           SKY/WX    TMP DP  RH WIND       PRES   REMARKS
*CUYAMA          N/A     65  49  57 S3        29.85F
PASO ROBLES    CLEAR     67  48  50 S17G24    29.88R

$$

CAZ032-033-061-020300-
SOUTHERN DESERTS


CITY           SKY/WX    TMP DP  RH WIND       PRES   REMARKS
BLYTHE         CLEAR     81  40  23 CALM      29.83S
IMPERIAL       CLEAR     82  42  24 SW7       29.81R
PALM SPRINGS   PTCLDY    79  42  26 E12       29.85R
THERMAL        MOCLDY    79  46  31 NE10      29.81R

$$

ELSEWHERE ACROSS THE WESTERN UNITED STATES AND MEXICO


CITY           SKY/WX    TMP DP  RH WIND       PRES   REMARKS
DEATH VALLEY,    N/A     85  31  14 CALM        N/A
DENVER, CO     CLOUDY    38  26  62 W5        30.27S WCI  34
GRAND CANYON,  CLOUDY    47  35  63 E9        30.08R
HONOLULU, HI   MOSUNNY   82  64  54 NE14G23   30.02F
KAHULUI, MAUI  MOSUNNY   82  68  61 NE23G33   30.01F
LAKE TAHOE, CA MOCLDY    47  34  60 S9        30.04S
LAS VEGAS, NV  PTCLDY    73  34  23 CALM      29.87S
MAMMOTH LAKES, DRIZZLE   40  36  86 W5        30.12S
MEXICO CITY, M PTCLDY    77  32  19 S6        30.20R
PHOENIX, AZ    PTCLDY    76  37  24 SE5       29.86R
PORTLAND, OR   SUNNY     79  39  23 E14       29.87F
RENO, NV       MOCLDY    63  29  27 E8        29.98R
SALT LAKE CITY MOCLDY    60  25  26 E10       30.02S
SAN DIEGO, CA  PTCLDY    63  51  65 SW6       29.96R
SAN FRANCISCO, MOSUNNY   68  52  56 NE8       29.85R
SAN JOSE, CA   MOSUNNY   74  43  32 S10       29.84R
SEATTLE, WA    SUNNY     75  46  35 N10       29.95F
TIJUANA, MEX   CLEAR     63  48  59 NW8       29.96S

$$

STATION/POSITION TIME  TEMP    WIND        PRES    VSBY  WAVE
                       AIR SEA DIR/SP/G                  HT/PER
                 (UTC) (F)     (DEG/KT/KT) (MB)    (MI)  (FT/S)
POINT ARGUELLO B NOT AVBL
WEST SANTA BARBA 0150   55 54  220/  4/  6 1012.9R         6/10
POINT CONCEPTION NOT AVBL
EAST SANTA BARBA 0100   58 58  260/  6/  8 1013.4F
SANTA MONICA BAY 0150   58 61  240/  4/  6 1013.7R         4/16



USA.gov is the U.S. government's official web portal to all federal, state and local government web resources and services.